Tracking 29487 objects as of 12-Sep-2024
HD Live streaming from Space Station
objects crossing your sky now

FENGYUN 1C DEB

Track FENGYUN 1C DEB now!
10-day predictions


NORAD ID: 30356
Int'l Code: 1999-025ABT
Perigee: 823.3 km
Apogee: 903.0 km
Inclination: 98.7 °
Period: 102.1 minutes
Semi major axis: 7234 km
RCS: 0.038 m2 (small)
Launch date: May 10, 1999
Source: People's Republic of China (PRC)
Launch site: Taiyaun Space Center, China (TSC)

Note: This is SATELLITE DEBRIS
Your satellite tracking list
Your tracking list is empty




NASA's NSSDC Master Catalog

Two Line Element Set (TLE):
1 30356U 99025ABT 24255.56798132  .00004204  00000-0  23296-2 0  9995
2 30356  98.6688 259.5187 0055068 149.1386 332.4844 14.10985335905682
Source of the keplerian elements: AFSPC